Showing default

TELSTAR 1, 340

Orbit data source: Space-Track

TELSTAR 1, 340 is a payload satellite owned by AT&T (US) in LEO that was launched on Tue, 10 Jul 1962 UTC via a THOR DELTA launch vehicle from the Air Force Eastern Test Range (AFETR). Payload-class satellites include a variety of spacecraft equipped with specific instruments for various scientific and technological missions. These include communications satellites like Starlink; space stations such as the ISS; scientific satellites like the Hubble; Earth observation satellites from companies like Planet Labs, Umbra, and HawkEye 360; GPS; miniature CubeSats for education and research; and military/defense satellites.

Loading next visibility...
Identifier
340, 1962-029A
Orbit
LEO
Country
Flag of USUS
Related business
Manufacturer
AT&T/BTL
Mission
Spacecraft
Bus & Motor
TSX, Unknown motor
Mass
77 kg wet, 77 kg dry
Launch date (UTC)
1962-07-10 (63 years ago)
Launch vehicle
THOR DELTA
Launch site
Air Force Eastern Test Range (AFETR)
Object type
Payload
Rocket body
Debris
Shape & HBR
Unknown
Radar Cross Section
Medium (>0.1 m² and <1 m²)

Expand to show TLE details & history
Last TLE update: 21 hours ago

TLE from 21 hours ago
0 TELSTAR 1
1 00340U 62029A   25349.91656904  .00000038  00000-0  61435-3 0  9992
2 00340  44.8018 301.0589 2425356 137.9345 290.2961  9.12883313115711
Epoch: 2025-12-15T21:59Z
TLE epoch observation values (Epoch: 2025-12-15T21:59:51.565Z)
Latitude
27.17056°
Longitude
-82.73662°
Altitude
3,028.164 km
Speed
6.602 km/s
True Right ascension
22h 08m 08s
True Declination
27° 03' 53"
Sunlit
Object was in daylight at epoch
Visualization orbit readout
Latitude
Unknown
Longitude
Unknown
Altitude
Unknown
Speed
Unknown
Apparent Right ascension
Unknown
Apparent Declination
Unknown
Sunlit
N/A
Visualization observer readout
Local Sidereal Time
18:11:06
Azimuth
Unknown
Elevation
Unknown
Doppler factor
Unknown
Orbital elements
Apogee altitude
5,639.653 km
Perigee altitude
948.05 km
Semi-major axis
9,671.988 km
Eccentricity
0.24254
Inclination
44.8018°
RAAN
301.0589°
Arg. of periapsis
137.9345°
True anomaly
262.34685°
Mean anomaly
290.2961°
Eccentric anomaly
276.48886°
Mean motion
2.28176 °/min
Orbital period
157.77 mins
BSTAR
0.00061435
Loading maneuver chart data...
Computing Atmospheric mass density...
Loading historical data...
Loading historical data...
Loading historical data...
Loading historical data...
Loading historical data...
Loading historical data...
Loading historical data...
Other satellites on launch #29 in the year 1962 (1962-07-10 UTC)

Documentation

Showing up to 5 results
|